TimeEDT,TemperatureF,Dew PointF,Humidity,Sea Level PressureIn,VisibilityMPH,Wind Direction,Wind SpeedMPH,Gust SpeedMPH,PrecipitationIn,Events,Conditions,WindDirDegrees,DateUTC
12:15 AM,60.8,60.8,100,30.20,5.0,Calm,Calm,-,N/A,,Partly Cloudy,0,2012-10-04 04:15:00
12:35 AM,62.6,62.6,100,30.20,9.0,Calm,Calm,-,N/A,,Partly Cloudy,0,2012-10-04 04:35:00
12:55 AM,62.6,62.6,100,30.20,7.0,Calm,Calm,-,N/A,,Mostly Cloudy,0,2012-10-04 04:55:00
1:15 AM,62.6,62.6,100,30.20,9.0,Calm,Calm,-,N/A,,Mostly Cloudy,0,2012-10-04 05:15:00
1:35 AM,62.6,62.6,100,30.20,5.0,Calm,Calm,-,N/A,,Mostly Cloudy,0,2012-10-04 05:35:00
1:55 AM,62.6,62.6,100,30.20,7.0,Calm,Calm,-,N/A,,Mostly Cloudy,0,2012-10-04 05:55:00
2:15 AM,62.6,62.6,100,30.20,8.0,Calm,Calm,-,N/A,,Mostly Cloudy,0,2012-10-04 06:15:00
2:35 AM,62.6,62.6,100,30.20,7.0,Calm,Calm,-,N/A,,Overcast,0,2012-10-04 06:35:00
2:55 AM,62.6,62.6,100,30.21,8.0,Calm,Calm,-,N/A,,Overcast,0,2012-10-04 06:55:00
3:15 AM,62.6,62.6,100,30.20,9.0,Calm,Calm,-,N/A,,Overcast,0,2012-10-04 07:15:00
3:35 AM,62.6,62.6,100,30.19,7.0,Calm,Calm,-,N/A,,Overcast,0,2012-10-04 07:35:00
3:55 AM,62.6,62.6,100,30.20,6.0,Calm,Calm,-,N/A,,Mostly Cloudy,0,2012-10-04 07:55:00
4:15 AM,62.6,62.6,100,30.20,6.0,Calm,Calm,-,N/A,,Mostly Cloudy,0,2012-10-04 08:15:00
4:35 AM,62.6,62.6,100,30.20,4.0,Calm,Calm,-,N/A,,Mostly Cloudy,0,2012-10-04 08:35:00
4:55 AM,62.6,62.6,100,30.22,9.0,Calm,Calm,-,N/A,,Overcast,0,2012-10-04 08:55:00
5:15 AM,62.6,62.6,100,30.21,9.0,Calm,Calm,-,N/A,,Mostly Cloudy,0,2012-10-04 09:15:00
5:35 AM,62.6,62.6,100,30.22,9.0,Calm,Calm,-,N/A,,Mostly Cloudy,0,2012-10-04 09:35:00
5:55 AM,62.6,62.6,100,30.23,9.0,Calm,Calm,-,N/A,,Overcast,0,2012-10-04 09:55:00
6:15 AM,62.6,62.6,100,30.23,5.0,Calm,Calm,-,N/A,,Mostly Cloudy,0,2012-10-04 10:15:00
6:35 AM,62.6,62.6,100,30.23,5.0,Calm,Calm,-,N/A,,Mostly Cloudy,0,2012-10-04 10:35:00
6:55 AM,60.8,60.8,100,30.24,4.0,Calm,Calm,-,N/A,,Mostly Cloudy,0,2012-10-04 10:55:00
7:15 AM,60.8,60.8,100,30.23,4.0,Calm,Calm,-,N/A,,Scattered Clouds,0,2012-10-04 11:15:00
7:35 AM,60.8,60.8,100,30.24,3.0,Calm,Calm,-,N/A,,Mostly Cloudy,0,2012-10-04 11:35:00
7:55 AM,60.8,60.8,100,30.25,9.0,Calm,Calm,-,N/A,,Scattered Clouds,0,2012-10-04 11:55:00
8:15 AM,60.8,60.8,100,30.24,7.0,Calm,Calm,-,N/A,,Scattered Clouds,0,2012-10-04 12:15:00
8:35 AM,62.6,62.6,100,30.26,10.0,Calm,Calm,-,N/A,,Scattered Clouds,0,2012-10-04 12:35:00
8:55 AM,62.6,62.6,100,30.25,10.0,Calm,Calm,-,N/A,,Mostly Cloudy,0,2012-10-04 12:55:00
9:15 AM,62.6,62.6,100,30.26,10.0,Calm,Calm,-,N/A,,Overcast,0,2012-10-04 13:15:00
9:35 AM,62.6,62.6,100,30.26,10.0,Calm,Calm,-,N/A,,Overcast,0,2012-10-04 13:35:00
9:55 AM,64.4,62.6,94,30.26,10.0,Calm,Calm,-,N/A,,Mostly Cloudy,0,2012-10-04 13:55:00
10:15 AM,64.4,62.6,94,30.27,10.0,Calm,Calm,-,N/A,,Mostly Cloudy,0,2012-10-04 14:15:00
10:35 AM,64.4,60.8,88,30.27,10.0,SW,5.8,-,N/A,,Scattered Clouds,230,2012-10-04 14:35:00
10:55 AM,64.4,60.8,88,30.28,10.0,WSW,9.2,-,N/A,,Partly Cloudy,250,2012-10-04 14:55:00
11:15 AM,64.4,59.0,83,30.28,10.0,WSW,8.1,-,N/A,,Clear,240,2012-10-04 15:15:00
11:35 AM,66.2,57.2,73,30.27,10.0,WSW,9.2,-,N/A,,Clear,240,2012-10-04 15:35:00
11:55 AM,68.0,57.2,68,30.27,10.0,SSW,6.9,-,N/A,,Scattered Clouds,210,2012-10-04 15:55:00
12:35 PM,68.0,55.4,64,30.27,10.0,WNW,8.1,-,N/A,,Mostly Cloudy,290,2012-10-04 16:35:00
12:55 PM,69.8,53.6,56,30.26,10.0,WNW,6.9,-,N/A,,Scattered Clouds,290,2012-10-04 16:55:00
1:15 PM,69.8,53.6,56,30.25,10.0,West,9.2,-,N/A,,Mostly Cloudy,280,2012-10-04 17:15:00
1:35 PM,69.8,53.6,56,30.25,10.0,SW,12.7,19.6,N/A,,Scattered Clouds,230,2012-10-04 17:35:00
1:55 PM,69.8,53.6,56,30.25,10.0,WSW,9.2,23.0,N/A,,Partly Cloudy,250,2012-10-04 17:55:00
2:15 PM,71.6,51.8,50,30.24,10.0,West,10.4,17.3,N/A,,Partly Cloudy,260,2012-10-04 18:15:00
2:35 PM,71.6,50.0,46,30.23,10.0,WSW,13.8,20.7,N/A,,Clear,240,2012-10-04 18:35:00
2:55 PM,71.6,51.8,50,30.22,10.0,SW,11.5,-,N/A,,Clear,220,2012-10-04 18:55:00
3:15 PM,71.6,51.8,50,30.23,10.0,SSW,8.1,-,N/A,,Scattered Clouds,210,2012-10-04 19:15:00
3:35 PM,69.8,48.2,46,30.23,10.0,WNW,9.2,-,N/A,,Scattered Clouds,290,2012-10-04 19:35:00
3:55 PM,69.8,50.0,49,30.23,10.0,West,13.8,-,N/A,,Clear,270,2012-10-04 19:55:00
4:15 PM,71.6,50.0,46,30.23,10.0,West,10.4,-,N/A,,Clear,270,2012-10-04 20:15:00
4:35 PM,71.6,50.0,46,30.22,10.0,West,6.9,-,N/A,,Clear,280,2012-10-04 20:35:00
4:55 PM,71.6,50.0,46,30.22,10.0,West,5.8,-,N/A,,Clear,260,2012-10-04 20:55:00
5:15 PM,69.8,48.2,46,30.22,10.0,WSW,8.1,-,N/A,,Clear,250,2012-10-04 21:15:00
5:35 PM,69.8,48.2,46,30.22,10.0,WSW,8.1,-,N/A,,Clear,240,2012-10-04 21:35:00
5:55 PM,69.8,50.0,49,30.21,10.0,West,5.8,-,N/A,,Clear,260,2012-10-04 21:55:00
6:15 PM,68.0,51.8,56,30.21,10.0,Calm,Calm,-,N/A,,Clear,0,2012-10-04 22:15:00
6:35 PM,68.0,50.0,52,30.21,10.0,Calm,Calm,-,N/A,,Clear,0,2012-10-04 22:35:00
6:55 PM,68.0,50.0,52,30.21,10.0,Calm,Calm,-,N/A,,Scattered Clouds,0,2012-10-04 22:55:00
7:15 PM,66.2,51.8,60,30.22,10.0,WSW,3.5,-,N/A,,Mostly Cloudy,250,2012-10-04 23:15:00
7:35 PM,66.2,51.8,60,30.22,10.0,Calm,Calm,-,N/A,,Partly Cloudy,0,2012-10-04 23:35:00
7:55 PM,64.4,51.8,64,30.22,10.0,Calm,Calm,-,N/A,,Partly Cloudy,0,2012-10-04 23:55:00
8:15 PM,64.4,51.8,64,30.22,10.0,Calm,Calm,-,N/A,,Scattered Clouds,0,2012-10-05 00:15:00
8:35 PM,62.6,53.6,72,30.22,10.0,Calm,Calm,-,N/A,,Partly Cloudy,0,2012-10-05 00:35:00
8:55 PM,60.8,53.6,77,30.22,10.0,Calm,Calm,-,N/A,,Clear,0,2012-10-05 00:55:00
9:15 PM,60.8,53.6,77,30.22,10.0,Calm,Calm,-,N/A,,Clear,0,2012-10-05 01:15:00
9:35 PM,60.8,53.6,77,30.22,10.0,Calm,Calm,-,N/A,,Clear,0,2012-10-05 01:35:00
9:55 PM,57.2,55.4,94,30.22,10.0,Calm,Calm,-,N/A,,Clear,0,2012-10-05 01:55:00
10:15 PM,57.2,55.4,94,30.23,10.0,Calm,Calm,-,N/A,,Clear,0,2012-10-05 02:15:00
10:35 PM,57.2,53.6,88,30.23,10.0,Calm,Calm,-,N/A,,Clear,0,2012-10-05 02:35:00
10:55 PM,57.2,53.6,88,30.23,10.0,Calm,Calm,-,N/A,,Clear,0,2012-10-05 02:55:00
11:15 PM,55.4,55.4,100,30.23,10.0,Calm,Calm,-,N/A,,Clear,0,2012-10-05 03:15:00
11:35 PM,55.4,55.4,100,30.23,10.0,Calm,Calm,-,N/A,,Clear,0,2012-10-05 03:35:00
11:55 PM,55.4,53.6,94,30.22,10.0,Calm,Calm,-,N/A,,Clear,0,2012-10-05 03:55:00